DW1902 Weather Reports


Display with metric or nautical units.
time (UTC)temp
F
wind
direction
speed
MPH
gust
MPH
rain 1hr
in
rain 24hr
in
rain mn
in
humidity
%
barometer
mb
20170920234710 66 82 1.0 8.0 0.00 0.24 0.24 100 1014.0
20170920234206 66 64 2.0 8.0 0.00 0.24 0.24 100 1013.9
20170920233706 66 53 1.0 8.0 0.00 0.24 0.24 100 1013.9
20170920233205 66 68 1.0 8.0 0.00 0.24 0.24 100 1013.9
20170920232705 66 70 2.0 8.0 0.00 0.24 0.24 100 1014.1
20170920232205 66 51 1.0 5.0 0.00 0.24 0.24 100 1014.0
20170920231706 66 57 1.0 8.0 0.00 0.24 0.24 100 1013.9
20170920231205 67 87 1.0 8.0 0.00 0.24 0.24 100 1014.0
20170920230705 67 86 1.0 8.0 0.00 0.24 0.24 100 1014.0
20170920230206 67 69 1.0 10.0 0.00 0.24 0.24 100 1013.9
20170920225706 67 76 1.0 10.0 0.00 0.24 0.24 100 1013.9
20170920225206 67 65 2.0 10.0 0.00 0.24 0.24 100 1013.9
20170920224706 67 89 2.0 9.0 0.00 0.24 0.24 100 1013.9
20170920224206 67 64 1.0 6.0 0.00 0.24 0.24 100 1014.0
20170920223706 67 45 1.0 5.0 0.00 0.24 0.24 100 1013.9
20170920223205 67 109 1.0 3.0 0.00 0.24 0.24 100 1013.9
20170920222705 67 61 0.0 7.0 0.00 0.24 0.24 100 1013.9
20170920222206 67 59 1.0 7.0 0.00 0.24 0.24 100 1014.0
20170920221705 67 59 1.0 7.0 0.00 0.24 0.24 100 1014.0
20170920221205 67 60 1.0 9.0 0.00 0.24 0.24 100 1014.0
20170920220706 67 61 2.0 9.0 0.00 0.24 0.24 100 1013.9
20170920220206 67 80 2.0 9.0 0.00 0.24 0.24 100 1013.9
20170920215706 67 71 1.0 6.0 0.00 0.24 0.24 100 1013.9
20170920215206 67 89 1.0 6.0 0.00 0.24 0.24 100 1013.8
20170920214706 68 79 0.0 7.0 0.00 0.24 0.24 100 1013.8
20170920214206 68 73 1.0 8.0 0.00 0.24 0.24 100 1013.8
20170920213705 68 87 2.0 9.0 0.00 0.24 0.24 100 1013.7
20170920213206 68 74 2.0 9.0 0.00 0.24 0.24 100 1013.7
20170920212706 68 79 2.0 9.0 0.00 0.24 0.24 100 1013.6
20170920212205 68 76 2.0 9.0 0.00 0.24 0.24 100 1013.6
20170920211711 68 75 1.0 6.0 0.00 0.24 0.24 100 1013.5
20170920211218 68 55 1.0 6.0 0.00 0.24 0.24 100 1013.4
20170920210722 68 51 1.0 7.0 0.00 0.24 0.24 100 1013.4
20170920210221 68 65 2.0 10.0 0.00 0.24 0.24 100 1013.5
20170920205711 69 76 3.0 10.0 0.00 0.24 0.24 99 1013.4
20170920205211 69 64 3.0 10.0 0.00 0.24 0.24 99 1013.4
20170920204705 69 51 2.0 10.0 0.00 0.24 0.24 99 1013.3
20170920204206 69 67 2.0 10.0 0.00 0.24 0.24 99 1013.2
20170920203707 69 60 2.0 10.0 0.00 0.24 0.24 99 1013.2
20170920203206 69 77 1.0 9.0 0.00 0.24 0.24 99 1013.2
20170920202706 69 40 2.0 9.0 0.00 0.24 0.24 99 1013.2
20170920202206 69 71 3.0 9.0 0.00 0.24 0.24 99 1013.4
20170920201706 69 25 2.0 7.0 0.00 0.24 0.24 99 1013.4
20170920201205 69 33 1.0 7.0 0.00 0.24 0.24 99 1013.4
20170920200706 69 63 1.0 8.0 0.00 0.24 0.24 99 1013.5
20170920200205 69 95 1.0 8.0 0.00 0.24 0.24 99 1013.3
20170920195706 69 71 1.0 8.0 0.00 0.24 0.24 99 1013.3
20170920195206 69 86 1.0 5.0 0.00 0.24 0.24 99 1013.3
20170920194707 69 82 1.0 9.0 0.00 0.24 0.24 99 1013.3
20170920194206 69 78 2.0 9.0 0.00 0.24 0.24 99 1013.2
20170920193706 69 57 1.0 9.0 0.00 0.24 0.24 99 1013.2
20170920193206 69 71 1.0 8.0 0.00 0.24 0.24 99 1013.3
20170920192705 69 42 2.0 9.0 0.00 0.24 0.24 99 1013.2
20170920192206 69 102 2.0 9.0 0.00 0.24 0.24 99 1013.1
20170920191706 69 55 2.0 7.0 0.00 0.24 0.24 99 1013.2
20170920191205 69 78 2.0 7.0 0.00 0.24 0.24 99 1013.3
20170920190706 69 71 2.0 7.0 0.00 0.24 0.24 99 1013.3
20170920190206 69 96 2.0 8.0 0.00 0.24 0.24 99 1013.4
20170920185706 70 95 2.0 8.0 0.00 0.24 0.24 99 1013.4
20170920185205 69 90 2.0 8.0 0.00 0.24 0.24 99 1013.5
20170920184706 69 86 1.0 6.0 0.00 0.24 0.24 100 1013.5
20170920184205 69 55 2.0 6.0 0.00 0.24 0.24 100 1013.5
20170920183706 69 69 2.0 8.0 0.00 0.24 0.24 100 1013.7
20170920183206 69 65 1.0 8.0 0.00 0.24 0.24 100 1013.6
20170920182706 69 78 2.0 12.0 0.00 0.24 0.24 99 1013.7
20170920182206 69 32 3.0 12.0 0.00 0.24 0.24 99 1013.7
20170920181706 69 68 3.0 12.0 0.00 0.24 0.24 99 1013.8
20170920181206 69 53 2.0 8.0 0.00 0.24 0.24 99 1013.9
20170920180705 70 83 2.0 6.0 0.00 0.24 0.24 99 1013.9
20170920180206 70 67 1.0 8.0 0.00 0.24 0.24 98 1013.8
20170920175705 71 88 1.0 8.0 0.00 0.24 0.24 98 1013.8
20170920175206 71 67 1.0 8.0 0.00 0.24 0.24 98 1013.8
20170920174706 70 53 2.0 12.0 0.00 0.24 0.24 98 1013.8
20170920174206 70 98 2.0 12.0 0.00 0.24 0.24 98 1013.8
20170920173711 70 59 3.0 12.0 0.00 0.24 0.24 98 1013.8
20170920173206 70 86 3.0 8.0 0.00 0.24 0.24 98 1013.9
20170920172705 71 70 2.0 10.0 0.00 0.24 0.24 99 1013.7
20170920172205 71 79 3.0 10.0 0.00 0.24 0.24 99 1013.6
20170920171705 70 68 2.0 10.0 0.00 0.24 0.24 99 1013.7
20170920171206 70 99 2.0 9.0 0.00 0.24 0.24 99 1013.9
20170920170706 70 107 3.0 9.0 0.00 0.24 0.24 99 1014.0
20170920170206 70 49 2.0 9.0 0.00 0.24 0.24 100 1014.0
20170920165705 70 53 2.0 7.0 0.00 0.24 0.24 100 1013.9
20170920165205 70 67 2.0 10.0 0.00 0.24 0.24 100 1014.0
20170920164705 70 79 2.0 10.0 0.00 0.24 0.24 100 1014.2
20170920164206 70 42 3.0 10.0 0.00 0.24 0.24 100 1014.3
20170920163706 70 70 2.0 10.0 0.00 0.24 0.24 100 1014.3
20170920163207 70 45 2.0 7.0 0.00 0.24 0.24 100 1014.4
20170920162705 69 65 2.0 10.0 0.00 0.24 0.24 100 1014.4
20170920162206 69 56 2.0 10.0 0.00 0.24 0.24 100 1014.5
20170920161705 69 53 2.0 10.0 0.00 0.24 0.24 100 1014.6
20170920161206 69 78 3.0 10.0 0.00 0.24 0.24 100 1014.6
20170920160705 69 73 2.0 11.0 0.00 0.24 0.24 100 1014.5
20170920160207 69 82 1.0 11.0 0.00 0.24 0.24 100 1014.6
20170920155705 69 57 2.0 11.0 0.00 0.24 0.24 100 1014.6
20170920155206 69 73 2.0 9.0 0.00 0.24 0.24 100 1014.7
20170920154706 69 59 2.0 11.0 0.00 0.24 0.24 100 1014.7
20170920154205 69 63 3.0 11.0 0.00 0.24 0.24 100 1014.7
20170920153706 69 68 3.0 11.0 0.00 0.24 0.24 100 1014.7
20170920153205 69 59 2.0 10.0 0.00 0.24 0.24 100 1014.7
20170920152706 69 83 2.0 10.0 0.00 0.24 0.24 100 1014.8
20170920152206 69 76 2.0 10.0 0.00 0.24 0.24 100 1014.9
20170920151706 69 68 2.0 11.0 0.00 0.24 0.24 100 1014.9
20170920151206 69 76 2.0 11.0 0.00 0.24 0.24 100 1015.0
20170920150705 69 81 3.0 12.0 0.00 0.24 0.24 100 1014.9
20170920150206 69 52 4.0 12.0 0.00 0.24 0.24 100 1014.9
20170920145706 69 21 4.0 12.0 0.00 0.24 0.24 100 1014.9
20170920145206 69 80 3.0 11.0 0.00 0.24 0.24 100 1015.0
20170920144705 69 85 3.0 10.0 0.01 0.24 0.24 100 1015.0
20170920144206 69 40 2.0 10.0 0.01 0.24 0.24 100 1015.0
20170920143706 68 63 2.0 10.0 0.01 0.24 0.24 100 1015.2
20170920143205 68 71 2.0 9.0 0.01 0.24 0.24 100 1015.4
20170920142705 68 63 1.0 9.0 0.01 0.24 0.24 100 1015.4
20170920142206 68 39 2.0 9.0 0.01 0.24 0.24 100 1015.4
20170920141706 68 71 3.0 9.0 0.01 0.24 0.24 100 1015.4
20170920141205 68 49 2.0 8.0 0.01 0.24 0.24 100 1015.5
20170920140705 68 66 1.0 9.0 0.01 0.24 0.24 100 1015.5
20170920140206 68 68 2.0 9.0 0.01 0.24 0.24 100 1015.5
20170920135706 68 86 2.0 7.0 0.01 0.24 0.24 100 1015.6
20170920135205 68 65 1.0 7.0 0.01 0.24 0.24 100 1015.6
20170920134706 68 73 1.0 7.0 0.00 0.24 0.23 100 1015.6
20170920134205 68 80 1.0 7.0 0.00 0.24 0.23 100 1015.5
20170920133705 67 51 1.0 7.0 0.00 0.24 0.23 100 1015.6
20170920133206 67 57 1.0 9.0 0.00 0.24 0.23 100 1015.6
20170920132705 67 50 1.0 9.0 0.01 0.24 0.23 100 1015.7
20170920132206 67 51 2.0 10.0 0.01 0.24 0.23 100 1015.6
20170920131706 67 67 3.0 10.0 0.01 0.24 0.23 100 1015.6
20170920131206 67 74 3.0 8.0 0.02 0.24 0.23 100 1015.7
20170920130705 67 61 2.0 8.0 0.02 0.24 0.23 100 1015.7
20170920130205 67 61 1.0 8.0 0.02 0.24 0.23 100 1015.8
20170920125706 67 78 1.0 8.0 0.02 0.24 0.23 100 1015.8
20170920125206 67 55 1.0 6.0 0.02 0.24 0.23 100 1015.8
20170920124704 67 33 2.0 6.0 0.02 0.24 0.23 100 1015.8
20170920124206 67 65 2.0 6.0 0.02 0.24 0.23 100 1015.8
20170920123706 67 50 1.0 6.0 0.02 0.24 0.23 100 1015.8
20170920123205 67 56 1.0 6.0 0.01 0.23 0.22 100 1015.9
20170920122706 67 55 1.0 6.0 0.01 0.23 0.22 100 1015.9
20170920122206 67 71 1.0 6.0 0.01 0.23 0.22 100 1016.0
20170920121706 67 59 1.0 6.0 0.01 0.23 0.22 100 1016.0
20170920121206 66 59 1.0 6.0 0.00 0.22 0.21 100 1015.9
20170920120706 66 64 1.0 4.0 0.00 0.22 0.21 100 1015.9
20170920120206 66 57 1.0 4.0 0.00 0.22 0.21 100 1016.0
20170920115705 66 67 1.0 4.0 0.00 0.22 0.21 100 1016.1
20170920115206 66 50 1.0 6.0 0.00 0.22 0.21 100 1016.1
20170920114706 66 54 1.0 6.0 0.00 0.22 0.21 100 1016.1
20170920114206 66 51 1.0 9.0 0.00 0.22 0.21 100 1016.2
20170920113705 66 62 1.0 9.0 0.00 0.22 0.21 100 1016.2
20170920113205 66 69 1.0 9.0 0.00 0.22 0.21 100 1016.2
20170920112706 66 63 1.0 6.0 0.00 0.22 0.21 100 1016.2
20170920112205 66 69 1.0 6.0 0.00 0.22 0.21 100 1016.2
20170920111705 66 37 1.0 6.0 0.00 0.22 0.21 100 1016.2
20170920111206 66 67 1.0 5.0 0.01 0.22 0.21 100 1016.1
20170920110706 66 49 1.0 5.0 0.01 0.22 0.21 100 1016.2
20170920110205 66 69 1.0 5.0 0.02 0.22 0.21 100 1016.2
20170920105706 66 70 1.0 5.0 0.02 0.22 0.21 100 1016.2
20170920105206 66 62 1.0 4.0 0.03 0.22 0.21 100 1016.1
20170920104705 66 62 1.0 4.0 0.04 0.22 0.21 100 1016.1
20170920104206 66 49 1.0 5.0 0.05 0.22 0.21 100 1016.3
20170920103705 65 59 0.0 5.0 0.06 0.22 0.21 100 1016.3
20170920103208 65 44 0.0 3.0 0.06 0.22 0.21 100 1016.3
20170920102706 65 94 0.0 3.0 0.07 0.22 0.21 100 1016.3
20170920102206 65 96 1.0 4.0 0.07 0.22 0.21 100 1016.3
20170920101706 65 69 0.0 4.0 0.07 0.21 0.20 100 1016.4
20170920101206 65 64 1.0 4.0 0.07 0.21 0.20 100 1016.3
20170920100705 65 75 1.0 4.0 0.07 0.21 0.20 100 1016.3
20170920100206 65 63 0.0 6.0 0.06 0.20 0.20 100 1016.3
20170920095706 65 54 1.0 6.0 0.06 0.20 0.19 100 1016.4
20170920095204 65 53 1.0 4.0 0.05 0.19 0.18 100 1016.3
20170920094705 65 88 0.0 3.0 0.03 0.17 0.17 100 1016.3
20170920094205 65 95 0.0 4.0 0.02 0.17 0.15 100 1016.3
20170920093706 65 64 0.0 5.0 0.02 0.16 0.15 100 1016.3
20170920093207 65 66 1.0 5.0 0.01 0.16 0.14 100 1016.4
20170920092706 65 78 1.0 5.0 0.01 0.15 0.14 100 1016.3
20170920092207 65 58 1.0 5.0 0.02 0.14 0.13 100 1016.3
20170920091205 65 85 0.0 4.0 0.03 0.14 0.13 100 1016.4
20170920090706 65 78 0.0 3.0 0.04 0.14 0.13 100 1016.5
20170920090206 65 78 0.0 2.0 0.05 0.15 0.13 100 1016.6
20170920085706 65 75 0.0 2.0 0.06 0.15 0.13 100 1016.7
20170920085205 65 75 0.0 2.0 0.08 0.15 0.13 100 1016.6
20170920084706 65 75 0.0 2.0 0.09 0.15 0.13 100 1016.7
20170920084207 65 75 0.0 1.0 0.11 0.15 0.13 100 1016.8
20170920083706 66 75 0.0 1.0 0.12 0.15 0.13 100 1016.8
20170920083205 65 75 0.0 4.0 0.12 0.15 0.13 100 1016.8
20170920082705 65 75 0.0 4.0 0.12 0.14 0.13 100 1016.9
20170920082208 65 75 0.0 4.0 0.12 0.14 0.12 100 1017.0
20170920081708 65 72 0.0 6.0 0.11 0.13 0.12 100 1016.9
20170920081209 65 120 0.0 6.0 0.09 0.12 0.10 100 1017.0
20170920080706 65 139 1.0 6.0 0.08 0.10 0.09 100 1017.1
20170920080217 65 129 0.0 7.0 0.08 0.10 0.09 100 1017.1
20170920075705 65 106 0.0 7.0 0.05 0.07 0.06 100 1017.2
20170920075206 66 84 1.0 7.0 0.04 0.07 0.05 100 1017.2
20170920074705 66 115 1.0 7.0 0.02 0.06 0.03 100 1017.2
20170920074206 66 105 1.0 4.0 0.01 0.04 0.02 100 1017.2
20170920073707 66 142 0.0 8.0 0.01 0.04 0.02 100 1017.3
20170920073205 66 100 1.0 8.0 0.00 0.03 0.01 100 1017.3
20170920072706 66 86 1.0 7.0 0.00 0.03 0.01 100 1017.3
20170920072205 66 134 0.0 7.0 0.00 0.03 0.01 100 1017.5
20170920071705 66 114 0.0 6.0 0.00 0.03 0.01 100 1017.5
20170920071205 66 92 1.0 7.0 0.00 0.03 0.01 100 1017.5
20170920070706 66 68 1.0 7.0 0.00 0.03 0.01 100 1017.6
20170920070206 66 109 1.0 4.0 0.00 0.03 0.01 100 1017.6
20170920065706 66 97 1.0 4.0 0.00 0.03 0.01 100 1017.6
20170920065205 66 107 0.0 4.0 0.00 0.03 0.01 100 1017.6
20170920064705 66 88 0.0 4.0 0.00 0.03 0.01 100 1017.7
20170920064206 66 78 1.0 4.0 0.00 0.03 0.01 100 1017.8
20170920063705 66 74 0.0 4.0 0.00 0.03 0.01 100 1017.8
20170920063206 66 109 0.0 4.0 0.00 0.03 0.01 100 1017.9
20170920062706 66 71 0.0 4.0 0.00 0.03 0.01 100 1017.9
20170920062205 66 76 0.0 3.0 0.00 0.03 0.01 100 1018.1
20170920061706 66 67 0.0 5.0 0.00 0.03 0.01 100 1018.1
20170920061206 66 77 1.0 5.0 0.00 0.03 0.01 100 1018.2
20170920060706 66 117 1.0 6.0 0.00 0.03 0.01 100 1018.2
20170920060205 66 135 1.0 6.0 0.00 0.03 0.01 100 1018.3
20170920055705 66 73 1.0 8.0 0.00 0.03 0.01 100 1018.4
20170920055206 66 179 1.0 8.0 0.00 0.03 0.01 100 1018.5
20170920054705 66 83 1.0 8.0 0.00 0.03 0.01 100 1018.5
20170920054206 66 104 1.0 7.0 0.00 0.03 0.01 100 1018.6
20170920053705 66 99 1.0 7.0 0.00 0.03 0.01 100 1018.7
20170920053206 66 67 1.0 4.0 0.00 0.03 0.01 100 1018.8
20170920052705 66 115 0.0 4.0 0.00 0.03 0.01 100 1018.7
20170920052210 66 134 1.0 4.0 0.00 0.03 0.01 100 1018.8
20170920051705 66 97 1.0 5.0 0.00 0.03 0.01 100 1018.9
20170920051208 66 163 1.0 5.0 0.00 0.03 0.01 100 1018.9
20170920050707 66 105 1.0 6.0 0.00 0.03 0.01 100 1019.0
20170920050212 66 161 1.0 6.0 0.00 0.03 0.01 100 1019.0
20170920045711 66 128 1.0 9.0 0.00 0.03 0.01 100 1019.0
20170920045207 66 100 1.0 9.0 0.00 0.03 0.01 100 1019.1
20170920044711 66 109 2.0 9.0 0.00 0.03 0.01 100 1019.1
20170920044215 66 104 1.0 5.0 0.00 0.03 0.01 100 1019.0
20170920043715 66 88 0.0 5.0 0.00 0.03 0.01 100 1019.1
20170920043219 66 65 0.0 4.0 0.01 0.03 0.01 100 1019.1
20170920042705 66 92 1.0 4.0 0.01 0.03 0.01 100 1019.2
20170920042206 66 99 1.0 6.0 0.01 0.03 0.01 100 1019.2
20170920041705 66 113 0.0 6.0 0.01 0.03 0.01 100 1019.2
20170920041206 66 115 1.0 6.0 0.01 0.03 0.01 100 1019.2
20170920040705 66 141 1.0 2.0 0.01 0.03 0.01 100 1019.2
20170920040205 66 76 0.0 6.0 0.01 0.03 0.01 100 1019.2
20170920035706 66 105 0.0 6.0 0.01 0.03 0.01 100 1019.2
20170920035205 66 134 0.0 6.0 0.01 0.03 0.01 100 1019.3
20170920034705 66 92 1.0 6.0 0.01 0.03 0.01 100 1019.3
20170920034206 66 103 1.0 4.0 0.01 0.03 0.01 100 1019.5
20170920033712 66 85 0.0 4.0 0.00 0.02 0.00 100 1019.5
20170920033205 66 82 0.0 8.0 0.00 0.02 0.00 100 1019.5
20170920032706 66 101 1.0 8.0 0.00 0.02 0.00 100 1019.6
20170920032206 66 93 1.0 8.0 0.00 0.02 0.00 100 1019.7
20170920030705 66 58 1.0 4.0 0.00 0.02 0.00 100 1019.8
20170920030207 66 84 0.0 3.0 0.00 0.02 0.02 100 1019.8
20170920025706 66 96 1.0 3.0 0.00 0.02 0.02 100 1020.0
20170920025206 66 86 1.0 3.0 0.00 0.02 0.02 100 1020.0
20170920024706 66 102 0.0 3.0 0.00 0.02 0.02 100 1020.1
20170920024205 66 102 0.0 3.0 0.00 0.02 0.02 100 1020.1
20170920023706 66 96 0.0 4.0 0.00 0.02 0.02 100 1020.2
20170920023206 66 92 0.0 4.0 0.00 0.02 0.02 100 1020.3
20170920022705 66 135 0.0 4.0 0.00 0.02 0.02 100 1020.4
20170920022206 66 148 1.0 4.0 0.00 0.02 0.02 100 1020.4
20170920021706 66 121 1.0 4.0 0.00 0.02 0.02 100 1020.4
20170920021205 66 100 0.0 7.0 0.00 0.02 0.02 100 1020.5
20170920020705 66 84 0.0 7.0 0.00 0.02 0.02 100 1020.4
20170920020205 66 111 1.0 4.0 0.00 0.02 0.02 100 1020.5
20170920015705 66 128 1.0 4.0 0.01 0.02 0.02 100 1020.4
20170920015205 66 116 0.0 4.0 0.01 0.02 0.02 100 1020.5
20170920014708 66 161 0.0 7.0 0.01 0.02 0.02 100 1020.4
20170920014206 66 100 1.0 7.0 0.01 0.02 0.02 100 1020.5
20170920013730 66 120 1.0 7.0 0.01 0.02 0.02 100 1020.5
20170920013206 66 110 1.0 10.0 0.01 0.02 0.02 100 1020.5
20170920012705 66 107 1.0 10.0 0.01 0.02 0.02 100 1020.5
20170920012206 66 144 1.0 7.0 0.01 0.02 0.02 100 1020.5
20170920011705 66 113 1.0 7.0 0.01 0.02 0.02 100 1020.4
20170920011206 66 119 0.0 3.0 0.01 0.02 0.02 100 1020.4
20170920010705 66 96 0.0 3.0 0.01 0.02 0.02 100 1020.5
20170920010205 66 106 0.0 8.0 0.01 0.02 0.02 100 1020.6
20170920005706 66 116 0.0 8.0 0.00 0.02 0.02 100 1020.5
20170920005206 66 122 0.0 8.0 0.00 0.02 0.02 100 1020.5
20170920004705 66 124 1.0 3.0 0.00 0.02 0.02 100 1020.6
20170920004206 66 112 0.0 3.0 0.00 0.02 0.02 100 1020.7
20170920003705 66 100 0.0 5.0 0.00 0.02 0.02 100 1020.6
20170920003206 66 102 1.0 5.0 0.00 0.02 0.02 100 1020.6
20170920002705 66 133 0.0 3.0 0.00 0.02 0.02 100 1020.7
20170920002205 66 108 0.0 2.0 0.00 0.02 0.02 100 1020.7
20170920001705 66 108 0.0 3.0 0.00 0.02 0.02 100 1020.7
20170920001205 66 107 0.0 3.0 0.00 0.02 0.02 100 1020.7
20170920000706 66 107 0.0 3.0 0.00 0.02 0.02 100 1020.7
20170920000205 66 107 0.0 2.0 0.00 0.02 0.02 100 1020.7
20170919235705 66 108 0.0 2.0 0.00 0.02 0.02 100 1020.7
20170919235205 66 108 0.0 2.0 0.00 0.02 0.02 100 1020.7